| time (UTC) | temp F | wind direction | speed MPH | gust MPH | rain 1hr in | rain 24hr in | rain mn in | humidity % | barometer mb |
| 20260507071836 | 68 | 150 | 3.0 | 0.0 | 0.00 | 0.00 | 0.00 | 53 | 1014.0 |
| 20260507070335 | 68 | 150 | 3.0 | 0.0 | 0.00 | 0.00 | 0.00 | 53 | 1014.0 |
| 20260507064835 | 66 | 2.0 | 0.0 | 0.00 | 0.00 | 0.00 | 56 | 1014.0 | |
| 20260507063335 | 66 | 2.0 | 0.0 | 0.00 | 0.00 | 0.00 | 56 | 1014.0 | |
| 20260507061845 | 64 | 2.0 | 0.0 | 0.00 | 0.00 | 0.00 | 60 | 1013.0 | |
| 20260507060335 | 64 | 2.0 | 0.0 | 0.00 | 0.00 | 0.00 | 60 | 1013.0 | |
| 20260507054835 | 64 | 70 | 3.0 | 0.0 | 0.00 | 0.00 | 0.00 | 60 | 1013.0 |
| 20260507053343 | 64 | 70 | 3.0 | 0.0 | 0.00 | 0.00 | 0.00 | 60 | 1013.0 |
| 20260507051836 | 59 | 290 | 3.0 | 0.0 | 0.00 | 0.00 | 0.00 | 72 | 1013.0 |
| 20260507050335 | 59 | 290 | 3.0 | 0.0 | 0.00 | 0.00 | 0.00 | 72 | 1013.0 |
| 20260507044832 | 59 | 3.0 | 0.0 | 0.00 | 0.00 | 0.00 | 72 | 1013.0 | |
| 20260507043335 | 59 | 3.0 | 0.0 | 0.00 | 0.00 | 0.00 | 72 | 1013.0 | |
| 20260507041835 | 57 | 90 | 5.0 | 0.0 | 0.00 | 0.00 | 0.00 | 72 | 1013.0 |
| 20260507040335 | 57 | 90 | 5.0 | 0.0 | 0.00 | 0.00 | 0.00 | 72 | 1013.0 |
| 20260507034832 | 54 | 90 | 6.0 | 0.0 | 0.00 | 0.00 | 0.00 | 82 | 1013.0 |
| 20260507033335 | 54 | 90 | 6.0 | 0.0 | 0.00 | 0.00 | 0.00 | 82 | 1013.0 |
| 20260507031835 | 54 | 80 | 3.0 | 0.0 | 0.00 | 0.00 | 0.00 | 82 | 1013.0 |
| 20260507030335 | 54 | 80 | 3.0 | 0.0 | 0.00 | 0.00 | 0.00 | 82 | 1013.0 |
| 20260507024832 | 54 | 90 | 5.0 | 0.0 | 0.00 | 0.00 | 0.00 | 82 | 1013.0 |
| 20260507023335 | 54 | 90 | 5.0 | 0.0 | 0.00 | 0.00 | 0.00 | 82 | 1013.0 |
| 20260507021835 | 54 | 90 | 5.0 | 0.0 | 0.00 | 0.00 | 0.00 | 77 | 1013.0 |
| 20260507020335 | 54 | 90 | 5.0 | 0.0 | 0.00 | 0.00 | 0.00 | 77 | 1013.0 |
| 20260507014835 | 54 | 80 | 7.0 | 0.0 | 0.00 | 0.00 | 0.00 | 82 | 1012.0 |
| 20260507013335 | 54 | 80 | 7.0 | 0.0 | 0.00 | 0.00 | 0.00 | 82 | 1012.0 |
| 20260507011835 | 55 | 90 | 7.0 | 0.0 | 0.00 | 0.00 | 0.00 | 72 | 1012.0 |
| 20260507010335 | 55 | 90 | 7.0 | 0.0 | 0.00 | 0.00 | 0.00 | 72 | 1012.0 |
| 20260507004835 | 52 | 100 | 6.0 | 0.0 | 0.00 | 0.00 | 0.00 | 82 | 1012.0 |
| 20260507003336 | 52 | 100 | 6.0 | 0.0 | 0.00 | 0.00 | 0.00 | 82 | 1012.0 |
| 20260507001835 | 57 | 80 | 5.0 | 0.0 | 0.00 | 0.00 | 0.00 | 72 | 1012.0 |
| 20260507000336 | 57 | 80 | 5.0 | 0.0 | 0.00 | 0.00 | 0.00 | 72 | 1012.0 |
| 20260506234835 | 57 | 2.0 | 0.0 | 0.00 | 0.00 | 0.00 | 67 | 1012.0 | |
| 20260506233335 | 57 | 2.0 | 0.0 | 0.00 | 0.00 | 0.00 | 67 | 1012.0 | |
| 20260506231836 | 55 | 80 | 2.0 | 0.0 | 0.00 | 0.00 | 0.00 | 72 | 1012.0 |
| 20260506230335 | 55 | 80 | 2.0 | 0.0 | 0.00 | 0.00 | 0.00 | 72 | 1012.0 |
| 20260506224831 | 57 | 70 | 3.0 | 0.0 | 0.00 | 0.00 | 0.00 | 67 | 1012.0 |
| 20260506223335 | 57 | 70 | 3.0 | 0.0 | 0.00 | 0.00 | 0.00 | 67 | 1012.0 |
| 20260506221835 | 57 | 70 | 5.0 | 0.0 | 0.00 | 0.00 | 0.00 | 72 | 1012.0 |
| 20260506220334 | 57 | 70 | 5.0 | 0.0 | 0.00 | 0.00 | 0.00 | 72 | 1012.0 |
| 20260506214851 | 61 | 50 | 3.0 | 0.0 | 0.00 | 0.00 | 0.00 | 59 | 1012.0 |
| 20260506213335 | 61 | 50 | 3.0 | 0.0 | 0.00 | 0.00 | 0.00 | 59 | 1012.0 |
| 20260506211832 | 61 | 50 | 5.0 | 0.0 | 0.00 | 0.00 | 0.00 | 63 | 1012.0 |
| 20260506210335 | 61 | 50 | 5.0 | 0.0 | 0.00 | 0.00 | 0.00 | 63 | 1012.0 |
| 20260506204836 | 59 | 90 | 2.0 | 0.0 | 0.00 | 0.00 | 0.00 | 63 | 1012.0 |
| 20260506203335 | 59 | 90 | 2.0 | 0.0 | 0.00 | 0.00 | 0.00 | 63 | 1012.0 |
| 20260506201832 | 63 | 20 | 3.0 | 0.0 | 0.00 | 0.00 | 0.00 | 59 | 1012.0 |
| 20260506200335 | 63 | 20 | 3.0 | 0.0 | 0.00 | 0.00 | 0.00 | 59 | 1012.0 |
| 20260506194854 | 64 | 30 | 5.0 | 0.0 | 0.00 | 0.00 | 0.00 | 56 | 1012.0 |
| 20260506193359 | 64 | 30 | 5.0 | 0.0 | 0.00 | 0.00 | 0.00 | 56 | 1012.0 |
| 20260506191836 | 64 | 20 | 3.0 | 0.0 | 0.00 | 0.00 | 0.00 | 56 | 1011.0 |
| 20260506190335 | 64 | 20 | 3.0 | 0.0 | 0.00 | 0.00 | 0.00 | 56 | 1011.0 |
| 20260506184840 | 66 | 360 | 5.0 | 0.0 | 0.00 | 0.00 | 0.00 | 52 | 1011.0 |
| 20260506183335 | 66 | 360 | 5.0 | 0.0 | 0.00 | 0.00 | 0.00 | 52 | 1011.0 |
| 20260506181835 | 68 | 350 | 3.0 | 0.0 | 0.00 | 0.00 | 0.00 | 49 | 1011.0 |
| 20260506180336 | 68 | 350 | 3.0 | 0.0 | 0.00 | 0.00 | 0.00 | 49 | 1011.0 |
| 20260506174836 | 72 | 300 | 3.0 | 0.0 | 0.00 | 0.00 | 0.00 | 41 | 1011.0 |
| 20260506173335 | 72 | 300 | 3.0 | 0.0 | 0.00 | 0.00 | 0.00 | 41 | 1011.0 |
| 20260506171835 | 75 | 280 | 7.0 | 0.0 | 0.00 | 0.00 | 0.00 | 36 | 1011.0 |
| 20260506170335 | 75 | 280 | 7.0 | 0.0 | 0.00 | 0.00 | 0.00 | 36 | 1011.0 |
| 20260506164835 | 75 | 270 | 8.0 | 0.0 | 0.00 | 0.00 | 0.00 | 36 | 1011.0 |
| 20260506163335 | 75 | 270 | 8.0 | 0.0 | 0.00 | 0.00 | 0.00 | 36 | 1011.0 |
| 20260506161835 | 79 | 260 | 11.0 | 0.0 | 0.00 | 0.00 | 0.00 | 32 | 1010.0 |
| 20260506160335 | 79 | 260 | 11.0 | 0.0 | 0.00 | 0.00 | 0.00 | 32 | 1010.0 |
| 20260506154836 | 79 | 250 | 9.0 | 0.0 | 0.00 | 0.00 | 0.00 | 30 | 1011.0 |
| 20260506153335 | 79 | 250 | 9.0 | 0.0 | 0.00 | 0.00 | 0.00 | 30 | 1011.0 |
| 20260506151835 | 79 | 270 | 6.0 | 0.0 | 0.00 | 0.00 | 0.00 | 30 | 1011.0 |
| 20260506150341 | 79 | 270 | 6.0 | 0.0 | 0.00 | 0.00 | 0.00 | 30 | 1011.0 |
| 20260506144835 | 81 | 220 | 8.0 | 0.0 | 0.00 | 0.00 | 0.00 | 28 | 1011.0 |
| 20260506143347 | 81 | 220 | 8.0 | 0.0 | 0.00 | 0.00 | 0.00 | 28 | 1011.0 |
| 20260506141835 | 81 | 270 | 7.0 | 0.0 | 0.00 | 0.00 | 0.00 | 28 | 1011.0 |
| 20260506140454 | 81 | 270 | 7.0 | 0.0 | 0.00 | 0.00 | 0.00 | 28 | 1011.0 |
| 20260506134900 | 81 | 240 | 8.0 | 0.0 | 0.00 | 0.00 | 0.00 | 26 | 1011.0 |
| 20260506133335 | 81 | 240 | 8.0 | 0.0 | 0.00 | 0.00 | 0.00 | 26 | 1011.0 |
| 20260506131835 | 81 | 240 | 8.0 | 0.0 | 0.00 | 0.00 | 0.00 | 28 | 1011.0 |
| 20260506130344 | 81 | 240 | 8.0 | 0.0 | 0.00 | 0.00 | 0.00 | 28 | 1011.0 |
| 20260506124836 | 79 | 260 | 8.0 | 0.0 | 0.00 | 0.00 | 0.00 | 26 | 1012.0 |
| 20260506123335 | 79 | 260 | 8.0 | 0.0 | 0.00 | 0.00 | 0.00 | 26 | 1012.0 |
| 20260506121836 | 79 | 3.0 | 0.0 | 0.00 | 0.00 | 0.00 | 26 | 1012.0 | |
| 20260506120335 | 79 | 3.0 | 0.0 | 0.00 | 0.00 | 0.00 | 26 | 1012.0 | |
| 20260506114835 | 79 | 220 | 7.0 | 0.0 | 0.00 | 0.00 | 0.00 | 26 | 1012.0 |
| 20260506113336 | 79 | 220 | 7.0 | 0.0 | 0.00 | 0.00 | 0.00 | 26 | 1012.0 |
| 20260506111835 | 77 | 240 | 8.0 | 0.0 | 0.00 | 0.00 | 0.00 | 28 | 1013.0 |
| 20260506110335 | 77 | 240 | 8.0 | 0.0 | 0.00 | 0.00 | 0.00 | 28 | 1013.0 |
| 20260506104835 | 77 | 3.0 | 0.0 | 0.00 | 0.00 | 0.00 | 32 | 1013.0 | |
| 20260506103335 | 77 | 3.0 | 0.0 | 0.00 | 0.00 | 0.00 | 32 | 1013.0 | |
| 20260506101836 | 75 | 200 | 7.0 | 0.0 | 0.00 | 0.00 | 0.00 | 31 | 1013.0 |
| 20260506100335 | 75 | 200 | 7.0 | 0.0 | 0.00 | 0.00 | 0.00 | 31 | 1013.0 |
| 20260506094835 | 75 | 220 | 6.0 | 0.0 | 0.00 | 0.00 | 0.00 | 31 | 1013.0 |
| 20260506093335 | 75 | 220 | 6.0 | 0.0 | 0.00 | 0.00 | 0.00 | 31 | 1013.0 |
| 20260506091835 | 75 | 5.0 | 0.0 | 0.00 | 0.00 | 0.00 | 31 | 1013.0 | |
| 20260506090335 | 75 | 5.0 | 0.0 | 0.00 | 0.00 | 0.00 | 31 | 1013.0 | |
| 20260506084835 | 73 | 3.0 | 0.0 | 0.00 | 0.00 | 0.00 | 36 | 1013.0 | |
| 20260506083335 | 73 | 3.0 | 0.0 | 0.00 | 0.00 | 0.00 | 36 | 1013.0 | |
| 20260506081832 | 72 | 1.0 | 0.0 | 0.00 | 0.00 | 0.00 | 36 | 1013.0 | |
| 20260506080335 | 72 | 1.0 | 0.0 | 0.00 | 0.00 | 0.00 | 36 | 1013.0 | |
| 20260506073335 | 70 | 3.0 | 0.0 | 0.00 | 0.00 | 0.00 | 40 | 1013.0 |